When you browse on this site, cookies collect data to enhance your experience and personalize the content and advertising you see.
Visit our Privacy Policy to learn more. By continuing to use the site, you agree to this use of cookies and data.
  • In United Kingdom
  • List of Countries
  • For 7 days
  • Water Temperature
  • Satellite Maps
  • Weather Map
  • Weather Widgets
  • user-avatar
    Login

    Hourly Weather Louangphabang

    Today, 23 July, Tuesday

    Time Temperature Precipitation Wind Pressure Humidity
    00:00 +21°C° 0.4 mm 0 mps 695 mmHg 97%
    01:00 +21°C° 0.4 mm 0 mps 695 mmHg 97%
    02:00 +21°C° 0 mm 0 mps 694 mmHg 97%
    03:00 +21°C° 0 mm 0 mps 694 mmHg 97%
    04:00 +21°C° 0 mm 0 mps 693 mmHg 97%
    05:00 +21°C° 0.1 mm 0 mps 694 mmHg 96%
    06:00 +21°C° 0.1 mm 0 mps 694 mmHg 95%
    07:00 +21°C° 0.1 mm 0 mps 694 mmHg 95%
    08:00 +22°C° 0.4 mm 0 mps 695 mmHg 94%
    09:00 +23°C° 0.4 mm 0 mps 695 mmHg 93%
    10:00 +26°C° 0.4 mm 1 mps 695 mmHg 92%
    11:00 +26°C° 0.7 mm 1 mps 695 mmHg 93%
    12:00 +26°C° 0.7 mm 1 mps 694 mmHg 94%
    13:00 +26°C° 0.7 mm 1 mps 694 mmHg 96%
    14:00 +26°C° 0.7 mm 1 mps 694 mmHg 96%
    15:00 +25°C° 0.7 mm 1 mps 693 mmHg 97%
    16:00 +25°C° 0.7 mm 1 mps 693 mmHg 98%
    17:00 +24°C° 0.7 mm 1 mps 693 mmHg 98%
    18:00 +22°C° 0.7 mm 0 mps 693 mmHg 98%
    19:00 +21°C° 0.7 mm 0 mps 693 mmHg 99%
    20:00 +21°C° 0.9 mm 0 mps 694 mmHg 99%
    21:00 +23°C° 0.9 mm 1 mps 694 mmHg 99%
    22:00 +23°C° 0.9 mm 1 mps 695 mmHg 99%
    23:00 +23°C° 0.7 mm 1 mps 695 mmHg 99%

    Tomorrow, 24 July, Wednesday

    Time Temperature Precipitation Wind Pressure Humidity
    00:00 +23°C° 0.7 mm 1 mps 694 mmHg 99%
    01:00 +22°C° 0.7 mm 1 mps 694 mmHg 99%
    02:00 +23°C° 0.5 mm 1 mps 694 mmHg 99%
    03:00 +21°C° 0.5 mm 0 mps 694 mmHg 99%
    04:00 +21°C° 0.5 mm 0 mps 694 mmHg 99%
    05:00 +23°C° 0.1 mm 1 mps 694 mmHg 99%
    06:00 +23°C° 0.1 mm 1 mps 694 mmHg 99%
    07:00 +23°C° 0.1 mm 1 mps 694 mmHg 99%
    08:00 +23°C° 0.3 mm 1 mps 695 mmHg 98%
    09:00 +24°C° 0.3 mm 1 mps 695 mmHg 97%
    10:00 +25°C° 0.3 mm 1 mps 696 mmHg 96%
    11:00 +24°C° 0.5 mm 1 mps 695 mmHg 96%
    12:00 +24°C° 0.5 mm 1 mps 695 mmHg 97%
    13:00 +24°C° 0.5 mm 1 mps 695 mmHg 98%
    14:00 +25°C° 0.3 mm 1 mps 694 mmHg 96%
    15:00 +25°C° 0.3 mm 1 mps 694 mmHg 93%
    16:00 +26°C° 0.3 mm 1 mps 693 mmHg 91%
    17:00 +25°C° 0.6 mm 1 mps 693 mmHg 94%
    18:00 +24°C° 0.6 mm 1 mps 694 mmHg 96%
    19:00 +24°C° 0.6 mm 1 mps 694 mmHg 98%
    20:00 +23°C° 0.1 mm 1 mps 694 mmHg 99%
    21:00 +23°C° 0.1 mm 1 mps 695 mmHg 99%
    22:00 +23°C° 0.1 mm 1 mps 696 mmHg 99%
    23:00 +23°C° 0 mm 1 mps 696 mmHg 99%

    Day after tomorrow, 25 July, Thursday

    Time Temperature Precipitation Wind Pressure Humidity
    00:00 +23°C° 0 mm 1 mps 695 mmHg 99%
    01:00 +21°C° 0 mm 0 mps 695 mmHg 99%
    02:00 +21°C° 0.1 mm 0 mps 695 mmHg 99%
    03:00 +21°C° 0.1 mm 0 mps 695 mmHg 99%
    04:00 +21°C° 0.1 mm 0 mps 694 mmHg 99%
    05:00 +21°C° 0.1 mm 0 mps 695 mmHg 99%
    06:00 +21°C° 0.1 mm 0 mps 695 mmHg 99%
    07:00 +21°C° 0.1 mm 0 mps 695 mmHg 99%
    08:00 +21°C° 0.2 mm 0 mps 696 mmHg 98%
    09:00 +22°C° 0.2 mm 0 mps 696 mmHg 98%
    10:00 +22°C° 0.2 mm 0 mps 696 mmHg 97%
    11:00 +24°C° 0.7 mm 0 mps 696 mmHg 88%
    12:00 +28°C° 0.7 mm 1 mps 696 mmHg 79%
    13:00 +30°C° 0.7 mm 1 mps 695 mmHg 69%
    14:00 +29°C° 1.2 mm 1 mps 695 mmHg 75%
    15:00 +29°C° 1.2 mm 1 mps 694 mmHg 80%
    16:00 +29°C° 1.2 mm 1 mps 693 mmHg 85%
    17:00 +27°C° 1.1 mm 1 mps 693 mmHg 89%
    18:00 +26°C° 1.1 mm 1 mps 693 mmHg 93%
    19:00 +24°C° 1.1 mm 1 mps 694 mmHg 97%
    20:00 +24°C° 0.1 mm 1 mps 694 mmHg 98%
    21:00 +24°C° 0.1 mm 1 mps 695 mmHg 98%
    22:00 +23°C° 0.1 mm 1 mps 696 mmHg 98%
    23:00 +21°C° 0 mm 0 mps 695 mmHg 98%

    26 July, Friday

    Time Temperature Precipitation Wind Pressure Humidity
    00:00 +21°C° 0 mm 0 mps 695 mmHg 98%
    01:00 +21°C° 0 mm 0 mps 695 mmHg 98%
    02:00 +21°C° 0 mm 0 mps 695 mmHg 98%
    03:00 +21°C° 0 mm 0 mps 695 mmHg 98%
    04:00 +21°C° 0 mm 0 mps 694 mmHg 98%
    05:00 +21°C° 0 mm 0 mps 695 mmHg 98%
    06:00 +21°C° 0 mm 0 mps 695 mmHg 98%
    07:00 +21°C° 0 mm 0 mps 695 mmHg 97%
    08:00 +24°C° 0 mm 0 mps 696 mmHg 86%
    09:00 +26°C° 0 mm 0 mps 696 mmHg 75%
    10:00 +30°C° 0 mm 1 mps 697 mmHg 63%
    11:00 +30°C° 0.6 mm 1 mps 696 mmHg 66%
    12:00 +30°C° 0.6 mm 1 mps 695 mmHg 68%
    13:00 +30°C° 0.6 mm 1 mps 695 mmHg 71%
    14:00 +30°C° 1.1 mm 1 mps 694 mmHg 76%
    15:00 +29°C° 1.1 mm 1 mps 693 mmHg 81%
    16:00 +28°C° 1.1 mm 1 mps 692 mmHg 87%
    17:00 +27°C° 0.6 mm 1 mps 693 mmHg 90%
    18:00 +26°C° 0.6 mm 1 mps 693 mmHg 93%
    19:00 +23°C° 0.6 mm 0 mps 693 mmHg 96%
    20:00 +22°C° 0.2 mm 0 mps 694 mmHg 96%
    21:00 +22°C° 0.2 mm 0 mps 694 mmHg 97%
    22:00 +22°C° 0.2 mm 0 mps 695 mmHg 97%
    23:00 +21°C° 0.6 mm 0 mps 695 mmHg 97%

    27 July, Saturday

    Time Temperature Precipitation Wind Pressure Humidity
    00:00 +21°C° 0.6 mm 0 mps 694 mmHg 98%
    01:00 +23°C° 0.6 mm 1 mps 694 mmHg 98%
    02:00 +21°C° 0.5 mm 0 mps 694 mmHg 98%
    03:00 +21°C° 0.5 mm 0 mps 694 mmHg 99%
    04:00 +21°C° 0.5 mm 0 mps 694 mmHg 99%
    05:00 +21°C° 0.2 mm 0 mps 694 mmHg 98%
    06:00 +21°C° 0.2 mm 0 mps 694 mmHg 98%
    07:00 +22°C° 0.2 mm 0 mps 694 mmHg 97%
    08:00 +24°C° 0 mm 0 mps 695 mmHg 86%
    09:00 +28°C° 0 mm 1 mps 695 mmHg 75%
    10:00 +30°C° 0 mm 1 mps 695 mmHg 64%
    11:00 +30°C° 0.3 mm 1 mps 695 mmHg 65%
    12:00 +30°C° 0.3 mm 1 mps 694 mmHg 65%
    13:00 +31°C° 0.3 mm 1 mps 694 mmHg 65%
    14:00 +30°C° 0.7 mm 1 mps 693 mmHg 69%
    15:00 +30°C° 0.7 mm 1 mps 693 mmHg 73%
    16:00 +29°C° 0.7 mm 1 mps 692 mmHg 77%
    17:00 +28°C° 0.4 mm 1 mps 692 mmHg 82%
    18:00 +27°C° 0.4 mm 1 mps 693 mmHg 88%
    19:00 +26°C° 0.4 mm 1 mps 693 mmHg 93%
    20:00 +25°C° 0.1 mm 1 mps 693 mmHg 93%
    21:00 +25°C° 0.1 mm 1 mps 694 mmHg 94%
    22:00 +23°C° 0.1 mm 0 mps 694 mmHg 95%
    23:00 +22°C° 0.5 mm 0 mps 694 mmHg 95%

    28 July, Sunday

    Time Temperature Precipitation Wind Pressure Humidity
    00:00 +22°C° 0.5 mm 0 mps 694 mmHg 96%
    01:00 +22°C° 0.5 mm 0 mps 694 mmHg 97%
    02:00 +22°C° 0.3 mm 0 mps 694 mmHg 97%
    03:00 +22°C° 0.3 mm 0 mps 694 mmHg 97%
    04:00 +21°C° 0.3 mm 0 mps 694 mmHg 97%
    05:00 +22°C° 0 mm 0 mps 694 mmHg 96%
    06:00 +22°C° 0 mm 0 mps 694 mmHg 96%
    07:00 +22°C° 0 mm 0 mps 694 mmHg 95%
    08:00 +24°C° 0 mm 0 mps 695 mmHg 83%
    09:00 +29°C° 0 mm 1 mps 696 mmHg 72%
    10:00 +31°C° 0 mm 1 mps 696 mmHg 60%
    11:00 +31°C° 1 mm 1 mps 695 mmHg 65%
    12:00 +31°C° 1 mm 1 mps 695 mmHg 70%
    13:00 +31°C° 1 mm 1 mps 694 mmHg 74%
    14:00 +30°C° 1.2 mm 1 mps 694 mmHg 76%
    15:00 +30°C° 1.2 mm 1 mps 693 mmHg 78%
    16:00 +30°C° 1.2 mm 1 mps 693 mmHg 80%
    17:00 +28°C° 0.8 mm 1 mps 693 mmHg 85%
    18:00 +25°C° 0.8 mm 0 mps 693 mmHg 90%
    19:00 +23°C° 0.8 mm 0 mps 693 mmHg 95%
    20:00 +23°C° 0.2 mm 0 mps 694 mmHg 96%
    21:00 +22°C° 0.2 mm 0 mps 694 mmHg 96%
    22:00 +22°C° 0.2 mm 0 mps 695 mmHg 96%
    23:00 +22°C° 0.1 mm 0 mps 694 mmHg 96%
    Show more